EW1647 Weather Reports


Display with metric or nautical units.
time (UTC)temp
F
wind
direction
speed
MPH
gust
MPH
rain 1hr
in
rain 24hr
in
rain mn
in
humidity
%
barometer
mb
20260905050013 58 105 3.0 4.0 0.00 0.06 0.05 80 1016.2
20260905044511 58 96 0.0 0.0 0.00 0.06 0.05 79 1016.1
20260905043017 59 96 0.0 0.0 0.00 0.06 0.05 77 1016.2
20260905041513 59 96 0.0 0.0 0.00 0.06 0.05 76 1016.1
20260905040010 60 96 0.0 2.0 0.00 0.06 0.05 75 1016.1
20260905034511 60 136 1.0 4.0 0.00 0.06 0.05 74 1015.9
20260905033007 60 138 3.0 5.0 0.00 0.06 0.05 74 1015.8
20260905031513 61 142 3.0 7.0 0.00 0.06 0.05 73 1015.6
20260905030005 61 146 4.0 8.0 0.00 0.06 0.05 71 1015.6
20260905024503 62 146 1.0 6.0 0.00 0.10 0.05 70 1015.4
20260905023007 62 170 4.0 9.0 0.00 0.10 0.05 70 1015.4
20260905021501 63 147 3.0 7.0 0.00 0.10 0.05 68 1015.5
20260905020104 64 126 4.0 10.0 0.00 0.10 0.05 66 1015.4
20260905014600 66 111 5.0 10.0 0.00 0.12 0.05 64 1015.4
20260905013117 67 111 4.0 7.0 0.00 0.12 0.05 60 1015.2
20260905011606 67 60 5.0 8.0 0.00 0.12 0.05 58 1015.0
20260905010058 68 122 0.0 6.0 0.00 0.12 0.05 59 1014.6
20260905004554 68 150 4.0 13.0 0.00 0.12 0.05 58 1014.5
20260905003050 68 107 5.0 14.0 0.00 0.12 0.05 60 1014.5
20260905001551 68 100 7.0 13.0 0.00 0.12 0.05 60 1014.4
20260905000048 70 134 3.0 14.0 0.00 0.12 0.05 60 1014.5
20260904234546 71 31 0.0 3.0 0.00 0.12 0.05 59 1014.4
20260904233047 72 31 2.0 5.0 0.00 0.12 0.05 57 1014.5
20260904231545 72 15 4.0 7.0 0.00 0.12 0.05 59 1014.5
20260904230059 72 14 2.0 6.0 0.00 0.12 0.05 62 1014.4
20260904224543 71 355 2.0 8.0 0.00 0.12 0.05 63 1014.2
20260904223053 71 19 3.0 5.0 0.00 0.12 0.05 63 1014.2
20260904221535 70 17 2.0 10.0 0.00 0.12 0.05 64 1014.3
20260904220040 70 23 5.0 9.0 0.00 0.12 0.05 64 1014.2
20260904214530 70 355 4.0 6.0 0.00 0.12 0.05 66 1014.0
20260904213033 69 5 3.0 6.0 0.00 0.12 0.05 65 1014.1
20260904211524 68 343 1.0 5.0 0.00 0.12 0.05 70 1014.0
20260904210021 66 345 2.0 4.0 0.00 0.12 0.05 72 1013.9
20260904204516 65 346 2.0 4.0 0.00 0.12 0.05 74 1014.0
20260904203015 64 342 2.0 4.0 0.00 0.12 0.05 78 1014.1
20260904201508 62 342 1.0 5.0 0.00 0.12 0.05 85 1014.2
20260904200015 61 317 1.0 3.0 0.00 0.12 0.05 87 1014.2
20260904194604 60 311 1.0 4.0 0.00 0.12 0.05 88 1014.2
20260904193058 59 308 2.0 4.0 0.00 0.12 0.05 89 1014.2
20260904191556 59 306 1.0 4.0 0.00 0.12 0.05 92 1014.2
20260904190055 59 312 2.0 5.0 0.00 0.12 0.05 94 1014.3
20260904184554 58 325 1.0 4.0 0.00 0.12 0.05 95 1014.3
20260904183050 58 345 3.0 4.0 0.00 0.12 0.05 95 1014.3
20260904181549 57 355 2.0 5.0 0.00 0.12 0.05 96 1014.3
20260904180049 57 338 1.0 4.0 0.00 0.12 0.05 96 1014.3
20260904174549 57 333 3.0 4.0 0.00 0.12 0.05 96 1014.4
20260904173046 57 263 2.0 3.0 0.00 0.12 0.05 96 1014.4
20260904171610 56 233 0.0 3.0 0.00 0.12 0.05 96 1014.4
20260904170041 56 206 0.0 2.0 0.00 0.12 0.05 96 1014.4
20260904164541 56 127 0.0 1.0 0.00 0.12 0.05 96 1014.3
20260904163050 56 127 0.0 1.0 0.00 0.12 0.05 96 1014.2
20260904161543 56 127 0.0 0.0 0.00 0.12 0.05 96 1014.1
20260904160038 55 127 2.0 3.0 0.01 0.12 0.05 96 1014.1
20260904154533 55 156 0.0 0.0 0.02 0.12 0.05 96 1013.9
20260904153052 54 156 0.0 0.0 0.03 0.12 0.05 96 1013.7
20260904151537 54 157 0.0 0.0 0.03 0.12 0.05 96 1013.6
20260904150034 54 156 1.0 2.0 0.02 0.11 0.04 96 1013.4
20260904144526 54 157 0.0 0.0 0.01 0.11 0.03 96 1013.4
20260904143025 53 157 0.0 2.0 0.00 0.10 0.02 96 1013.2
20260904141524 53 157 1.0 2.0 0.00 0.10 0.02 95 1013.1
20260904140023 53 157 0.0 0.0 0.00 0.10 0.02 95 1012.9
20260904134523 53 157 0.0 1.0 0.01 0.12 0.02 95 1012.7
20260904133019 53 157 1.0 2.0 0.01 0.12 0.02 95 1012.7
20260904131517 54 157 1.0 3.0 0.01 0.12 0.02 95 1012.5
20260904130016 53 157 0.0 3.0 0.01 0.12 0.02 95 1012.4
20260904124514 53 150 1.0 3.0 0.00 0.16 0.01 95 1012.3
20260904123014 53 150 0.0 0.0 0.00 0.16 0.01 95 1012.2
20260904121512 54 150 0.0 2.0 0.00 0.16 0.01 95 1012.2
20260904120015 53 150 1.0 2.0 0.00 0.16 0.01 95 1012.1
20260904114509 53 150 2.0 5.0 0.00 0.16 0.01 95 1012.0
20260904113009 53 148 0.0 0.0 0.00 0.16 0.01 95 1011.9
20260904111507 53 148 0.0 0.0 0.00 0.16 0.01 95 1011.8
20260904110006 53 148 0.0 1.0 0.00 0.16 0.01 95 1011.8
20260904104505 53 148 1.0 2.0 0.00 0.16 0.01 95 1011.7
20260904103003 53 148 2.0 3.0 0.00 0.16 0.01 94 1011.6
20260904101505 53 150 0.0 3.0 0.00 0.16 0.01 94 1011.4
20260904100001 53 150 2.0 4.0 0.00 0.16 0.01 94 1011.4
20260904094600 53 152 2.0 6.0 0.00 0.16 0.01 94 1011.3
20260904093059 53 155 2.0 3.0 0.00 0.16 0.01 93 1011.3
20260904091558 54 154 2.0 5.0 0.00 0.16 0.01 93 1011.3
20260904090058 54 158 2.0 3.0 0.00 0.16 0.01 93 1011.4
20260904084600 54 159 1.0 5.0 0.00 0.16 0.01 93 1011.3
20260904083054 54 159 0.0 1.0 0.01 0.16 0.01 93 1011.2
20260904081553 54 159 1.0 3.0 0.01 0.16 0.01 93 1011.2
20260904080113 55 159 1.0 5.0 0.01 0.16 0.01 93 1011.3
20260904074549 55 155 3.0 7.0 0.01 0.16 0.01 93 1011.4
20260904073048 55 118 5.0 8.0 0.00 0.15 0.00 93 1011.4
20260904071546 55 123 6.0 9.0 0.01 0.15 0.00 92 1011.4
20260904070053 55 130 6.0 11.0 0.01 0.15 0.00 92 1011.3
20260904064543 55 121 5.0 9.0 0.01 0.15 0.15 92 1011.4
20260904063106 55 126 4.0 7.0 0.01 0.15 0.15 92 1011.4
20260904061541 55 143 2.0 4.0 0.00 0.14 0.14 91 1011.3
20260904060048 55 132 1.0 4.0 0.00 0.14 0.14 91 1011.2
20260904054546 55 134 4.0 7.0 0.00 0.14 0.14 91 1011.1
20260904053053 55 146 3.0 7.0 0.00 0.14 0.14 91 1011.0
20260904051540 55 150 4.0 8.0 0.00 0.14 0.14 91 1011.1
20260904050039 56 124 5.0 9.0 0.00 0.14 0.14 92 1011.1